User: anonymous   Login
Location: Harbor Island
(32.3990°N, 80.4435°W)
Time: 23:12:46
(UTC-04:00)
Language:

Cosmos 1455 - Orbit

View from above orbital plane
View from above orbital plane
View from above satellite
View from above satellite

Ground track
Ground track

The orbit data is extracted from the following two-line orbital elements,

1 14032U 83037A   14304.44602920  .00005999  00000-0  34533-3 0  6721
2 14032 082.5184 312.5004 0019520 010.3854 105.7098 15.12098357716031
Epoch (UTC): 31 October 2014 10:42:16
Eccentricity: 0.0019520
inclination: 82.5184°
perigee height: 516 km
apogee height: 543 km
right ascension of ascending node: 312.5004°
argument of perigee: 10.3854°
revolutions per day: 15.12098357
mean anomaly at epoch: 105.7098°
orbit number at epoch: 71603

The dashed part of the orbit path shows where the satellite is in the earth's shadow,  

DLR